This is the latest recevied weather packets stored in our database for station/object OK1FET-5. If no packets are shown the sender has not sent any weather packets the latest 10 day(s).
| Time | Temp. | Humidity | Pressure | Rain* | Wind** | Luminosity | Snow |
|---|---|---|---|---|---|---|---|
| 1777371175 | 19.44° C | 33% | 1022.6 hPa | - | - | - | - |
| 1777370880 | 20° C | 30% | 1022.7 hPa | - | - | - | - |
| 1777370585 | 19.44° C | 34% | 1022.7 hPa | - | - | - | - |
| 1777370290 | 18.89° C | 31% | 1022.8 hPa | - | - | - | - |
| 1777369995 | 18.89° C | 29% | 1022.8 hPa | - | - | - | - |
| 1777369700 | 19.44° C | 31% | 1022.8 hPa | - | - | - | - |
| 1777369404 | 19.44° C | 33% | 1022.9 hPa | - | - | - | - |
| 1777369109 | 19.44° C | 31% | 1022.8 hPa | - | - | - | - |
| 1777368519 | 18.89° C | 33% | 1022.9 hPa | - | - | - | - |
| 1777368224 | 18.89° C | 33% | 1022.9 hPa | - | - | - | - |
| 1777367634 | 18.89° C | 34% | 1022.9 hPa | - | - | - | - |
| 1777366749 | 18.33° C | 37% | 1022.9 hPa | - | - | - | - |
| 1777366454 | 17.78° C | 37% | 1022.9 hPa | - | - | - | - |
| 1777366159 | 17.78° C | 35% | 1023 hPa | - | - | - | - |
| 1777365864 | 17.22° C | 37% | 1022.9 hPa | - | - | - | - |
| 1777365569 | 16.67° C | 36% | 1022.9 hPa | - | - | - | - |
| 1777365274 | 16.67° C | 36% | 1023 hPa | - | - | - | - |
| 1777364979 | 16.67° C | 37% | 1023 hPa | - | - | - | - |
| 1777364685 | 16.11° C | 37% | 1023.1 hPa | - | - | - | - |
| 1777364390 | 16.67° C | 38% | 1023.1 hPa | - | - | - | - |
| 1777364095 | 16.11° C | 37% | 1023 hPa | - | - | - | - |
| 1777363800 | 16.11° C | 39% | 1022.9 hPa | - | - | - | - |
| 1777363506 | 15.56° C | 38% | 1022.9 hPa | - | - | - | - |
| 1777363211 | 15.56° C | 38% | 1023 hPa | - | - | - | - |
| 1777362916 | 15.56° C | 39% | 1022.9 hPa | - | - | - | - |
* Rain since midnight (hover to see other rain measurements)
** Current wind speed in m/s (hover to see current wind gust speed)